Time,TemperatureF,DewpointF,PressureIn,WindDirection,WindDirectionDegrees,WindSpeedMPH,WindSpeedGustMPH,Humidity,HourlyPrecipIn,Conditions,Clouds,dailyrainin,SoftwareType,DateUTC
2013-04-07 00:02:00,61.3,43.0,29.98,SSE,155,3.0,3.0,51,0.00,,,0.00,meteohub,2013-04-07 05:02:00,
2013-04-07 00:07:00,61.2,43.0,29.98,SE,140,1.0,3.0,51,0.00,,,0.00,meteohub,2013-04-07 05:07:00,
2013-04-07 00:12:00,61.0,43.2,29.99,ESE,112,1.0,3.0,52,0.00,,,0.00,meteohub,2013-04-07 05:12:00,
2013-04-07 00:17:00,60.6,43.0,29.99,East,82,1.0,3.0,52,0.00,,,0.00,meteohub,2013-04-07 05:17:00,
2013-04-07 00:22:00,60.4,42.8,29.99,East,82,0.0,2.0,52,0.00,,,0.00,meteohub,2013-04-07 05:22:00,
2013-04-07 00:27:00,60.4,43.2,29.99,ESE,121,1.0,2.0,53,0.00,,,0.00,meteohub,2013-04-07 05:27:00,
2013-04-07 00:32:00,60.1,43.0,29.99,SSE,158,1.0,2.0,53,0.00,,,0.00,meteohub,2013-04-07 05:32:00,
2013-04-07 00:37:00,59.4,43.2,29.99,SSE,158,0.0,2.0,55,0.00,,,0.00,meteohub,2013-04-07 05:37:00,
2013-04-07 00:42:00,58.8,43.7,29.99,SSE,158,0.0,2.0,57,0.00,,,0.00,meteohub,2013-04-07 05:42:00,
2013-04-07 00:47:00,58.5,43.7,29.99,SSE,158,0.0,1.0,58,0.00,,,0.00,meteohub,2013-04-07 05:47:00,
2013-04-07 00:52:00,58.3,43.5,29.99,SW,233,0.0,0.0,58,0.00,,,0.00,meteohub,2013-04-07 05:52:00,
2013-04-07 00:57:00,57.9,43.7,29.99,WSW,240,0.0,0.0,59,0.00,,,0.00,meteohub,2013-04-07 05:57:00,
2013-04-07 01:02:00,57.6,43.3,29.99,WSW,239,0.0,0.0,59,0.00,,,0.00,meteohub,2013-04-07 06:02:00,
2013-04-07 01:07:00,57.6,43.3,29.99,WSW,239,0.0,0.0,59,0.00,,,0.00,meteohub,2013-04-07 06:07:00,
2013-04-07 01:12:00,57.4,43.2,29.99,WSW,239,0.0,0.0,59,0.00,,,0.00,meteohub,2013-04-07 06:12:00,
2013-04-07 01:17:00,57.0,42.8,29.99,WSW,239,0.0,0.0,59,0.00,,,0.00,meteohub,2013-04-07 06:17:00,
2013-04-07 01:22:00,56.8,43.2,29.99,WSW,240,0.0,0.0,60,0.00,,,0.00,meteohub,2013-04-07 06:22:00,
2013-04-07 01:28:00,56.7,43.0,29.99,WSW,239,0.0,0.0,60,0.00,,,0.00,meteohub,2013-04-07 06:28:00,
2013-04-07 01:33:00,56.5,42.8,29.99,WSW,239,0.0,0.0,60,0.00,,,0.00,meteohub,2013-04-07 06:33:00,
2013-04-07 01:38:00,56.5,42.8,29.99,WSW,239,0.0,0.0,60,0.00,,,0.00,meteohub,2013-04-07 06:38:00,
2013-04-07 01:43:00,56.3,43.0,29.99,WSW,239,0.0,0.0,61,0.00,,,0.00,meteohub,2013-04-07 06:43:00,
2013-04-07 01:48:00,56.1,42.8,29.99,WSW,239,0.0,0.0,61,0.00,,,0.00,meteohub,2013-04-07 06:48:00,
2013-04-07 01:53:00,55.8,43.0,29.98,WSW,239,0.0,0.0,62,0.00,,,0.00,meteohub,2013-04-07 06:53:00,
2013-04-07 01:58:00,55.2,42.8,29.98,WSW,239,0.0,0.0,63,0.00,,,0.00,meteohub,2013-04-07 06:58:00,
2013-04-07 02:03:00,55.2,43.3,29.98,WSW,239,0.0,0.0,64,0.00,,,0.00,meteohub,2013-04-07 07:03:00,
2013-04-07 02:08:00,55.2,43.3,29.98,WSW,239,0.0,0.0,64,0.00,,,0.00,meteohub,2013-04-07 07:08:00,
2013-04-07 02:13:00,55.4,43.3,29.98,South,190,0.0,0.0,64,0.00,,,0.00,meteohub,2013-04-07 07:13:00,
2013-04-07 02:18:00,55.6,43.5,29.98,South,190,0.0,0.0,64,0.00,,,0.00,meteohub,2013-04-07 07:18:00,
2013-04-07 02:23:00,55.6,43.2,29.98,South,190,0.0,0.0,63,0.00,,,0.00,meteohub,2013-04-07 07:23:00,
2013-04-07 02:28:00,55.6,43.5,29.98,South,190,0.0,0.0,64,0.00,,,0.00,meteohub,2013-04-07 07:28:00,
2013-04-07 02:33:00,55.2,43.7,29.98,South,190,0.0,0.0,65,0.00,,,0.00,meteohub,2013-04-07 07:33:00,
2013-04-07 02:38:00,55.2,43.7,29.98,South,190,0.0,0.0,65,0.00,,,0.00,meteohub,2013-04-07 07:38:00,
2013-04-07 02:43:00,55.2,43.7,29.98,South,190,0.0,0.0,65,0.00,,,0.00,meteohub,2013-04-07 07:43:00,
2013-04-07 02:48:00,55.2,44.1,29.98,SW,217,0.0,0.0,66,0.00,,,0.00,meteohub,2013-04-07 07:48:00,
2013-04-07 02:53:00,55.0,43.9,29.98,SW,214,0.0,0.0,66,0.00,,,0.00,meteohub,2013-04-07 07:53:00,
2013-04-07 02:58:00,54.9,44.1,29.98,SW,214,0.0,0.0,67,0.00,,,0.00,meteohub,2013-04-07 07:58:00,
2013-04-07 03:03:00,54.9,43.7,29.97,SW,214,0.0,0.0,66,0.00,,,0.00,meteohub,2013-04-07 08:03:00,
2013-04-07 03:08:00,54.9,43.7,29.97,SW,214,0.0,0.0,66,0.00,,,0.00,meteohub,2013-04-07 08:08:00,
2013-04-07 03:13:00,54.7,44.2,29.97,SW,214,0.0,0.0,68,0.00,,,0.00,meteohub,2013-04-07 08:13:00,
2013-04-07 03:18:00,54.7,43.9,29.97,SW,214,0.0,0.0,67,0.00,,,0.00,meteohub,2013-04-07 08:18:00,
2013-04-07 03:23:00,54.9,44.1,29.97,SSW,203,0.0,0.0,67,0.00,,,0.00,meteohub,2013-04-07 08:23:00,
2013-04-07 03:28:00,54.7,44.2,29.96,SSW,208,0.0,0.0,68,0.00,,,0.00,meteohub,2013-04-07 08:28:00,
2013-04-07 03:34:00,54.7,44.2,29.96,SSW,208,0.0,0.0,68,0.00,,,0.00,meteohub,2013-04-07 08:34:00,
2013-04-07 03:39:00,54.7,44.2,29.97,SSW,211,0.0,0.0,68,0.00,,,0.00,meteohub,2013-04-07 08:39:00,
2013-04-07 03:44:00,54.5,44.2,29.96,SSW,211,0.0,0.0,68,0.00,,,0.00,meteohub,2013-04-07 08:44:00,
2013-04-07 03:49:00,54.3,44.1,29.96,SSW,212,0.0,0.0,68,0.00,,,0.00,meteohub,2013-04-07 08:49:00,
2013-04-07 03:54:00,54.1,44.2,29.96,SSW,212,0.0,0.0,69,0.00,,,0.00,meteohub,2013-04-07 08:54:00,
2013-04-07 03:59:00,54.3,44.1,29.96,SSW,211,0.0,0.0,68,0.00,,,0.00,meteohub,2013-04-07 08:59:00,
2013-04-07 04:04:00,54.5,43.7,29.96,SSW,203,0.0,0.0,67,0.00,,,0.00,meteohub,2013-04-07 09:04:00,
2013-04-07 04:10:00,54.5,43.7,29.96,SE,139,0.0,0.0,67,0.00,,,0.00,meteohub,2013-04-07 09:10:00,
2013-04-07 04:15:00,54.7,43.5,29.96,SE,134,0.0,0.0,66,0.00,,,0.00,meteohub,2013-04-07 09:15:00,
2013-04-07 04:20:00,54.9,43.7,29.96,SSE,153,0.0,0.0,66,0.00,,,0.00,meteohub,2013-04-07 09:20:00,
2013-04-07 04:25:00,54.9,43.3,29.96,SSE,152,0.0,0.0,65,0.00,,,0.00,meteohub,2013-04-07 09:25:00,
2013-04-07 04:30:00,54.9,43.3,29.96,SSE,153,0.0,0.0,65,0.00,,,0.00,meteohub,2013-04-07 09:30:00,
2013-04-07 04:35:00,54.9,43.7,29.96,SSE,152,0.0,0.0,66,0.00,,,0.00,meteohub,2013-04-07 09:35:00,
2013-04-07 04:40:00,54.7,43.5,29.96,SSE,153,0.0,0.0,66,0.00,,,0.00,meteohub,2013-04-07 09:40:00,
2013-04-07 04:46:00,54.7,43.5,29.96,SSE,153,0.0,0.0,66,0.00,,,0.00,meteohub,2013-04-07 09:46:00,
2013-04-07 04:51:00,54.7,43.5,29.96,SSE,152,0.0,0.0,66,0.00,,,0.00,meteohub,2013-04-07 09:51:00,
2013-04-07 04:56:00,54.9,43.3,29.96,SSE,152,0.0,0.0,65,0.00,,,0.00,meteohub,2013-04-07 09:56:00,
2013-04-07 05:01:00,55.0,43.5,29.96,SSE,153,0.0,0.0,65,0.00,,,0.00,meteohub,2013-04-07 10:01:00,
2013-04-07 05:06:00,55.0,43.9,29.96,SSE,153,0.0,0.0,66,0.00,,,0.00,meteohub,2013-04-07 10:06:00,
2013-04-07 05:11:00,55.0,43.9,29.96,SSE,152,0.0,0.0,66,0.00,,,0.00,meteohub,2013-04-07 10:11:00,
2013-04-07 05:16:00,55.0,43.9,29.96,SSE,152,0.0,0.0,66,0.00,,,0.00,meteohub,2013-04-07 10:16:00,
2013-04-07 05:21:00,55.0,43.5,29.96,SSE,152,0.0,0.0,65,0.00,,,0.00,meteohub,2013-04-07 10:21:00,
2013-04-07 05:26:00,55.2,43.3,29.96,SSE,152,0.0,0.0,64,0.00,,,0.00,meteohub,2013-04-07 10:26:00,
2013-04-07 05:31:00,55.2,43.3,29.96,SSE,153,0.0,0.0,64,0.00,,,0.00,meteohub,2013-04-07 10:31:00,
2013-04-07 05:36:00,55.2,43.3,29.96,SSE,152,0.0,0.0,64,0.00,,,0.00,meteohub,2013-04-07 10:36:00,
2013-04-07 05:41:00,55.2,43.3,29.96,ESE,106,0.0,0.0,64,0.00,,,0.00,meteohub,2013-04-07 10:41:00,
2013-04-07 05:47:00,55.2,43.3,29.96,East,85,0.0,0.0,64,0.00,,,0.00,meteohub,2013-04-07 10:47:00,
2013-04-07 05:52:00,55.2,43.3,29.95,ENE,75,0.0,0.0,64,0.00,,,0.00,meteohub,2013-04-07 10:52:00,
2013-04-07 05:57:00,55.2,43.7,29.95,ENE,75,0.0,0.0,65,0.00,,,0.00,meteohub,2013-04-07 10:57:00,
2013-04-07 06:02:00,55.2,43.7,29.95,ENE,75,0.0,0.0,65,0.00,,,0.00,meteohub,2013-04-07 11:02:00,
2013-04-07 06:07:00,55.2,43.7,29.95,East,89,0.0,0.0,65,0.00,,,0.00,meteohub,2013-04-07 11:07:00,
2013-04-07 06:12:00,55.0,43.5,29.95,East,89,0.0,0.0,65,0.00,,,0.00,meteohub,2013-04-07 11:12:00,
2013-04-07 06:17:00,55.0,43.5,29.96,East,89,0.0,0.0,65,0.00,,,0.00,meteohub,2013-04-07 11:17:00,
2013-04-07 06:22:00,55.0,43.5,29.96,East,89,0.0,0.0,65,0.00,,,0.00,meteohub,2013-04-07 11:22:00,
2013-04-07 06:27:00,55.2,43.7,29.96,East,94,0.0,0.0,65,0.00,,,0.00,meteohub,2013-04-07 11:27:00,
2013-04-07 06:33:00,55.2,43.7,29.96,ENE,73,0.0,0.0,65,0.00,,,0.00,meteohub,2013-04-07 11:33:00,
2013-04-07 06:38:00,55.2,43.7,29.95,East,94,0.0,0.0,65,0.00,,,0.00,meteohub,2013-04-07 11:38:00,
2013-04-07 06:43:00,55.2,43.7,29.96,ESE,119,3.0,0.0,65,0.00,,,0.00,meteohub,2013-04-07 11:43:00,
2013-04-07 06:48:00,55.2,43.7,29.95,East,82,4.0,7.0,65,0.00,,,0.00,meteohub,2013-04-07 11:48:00,
2013-04-07 06:53:00,55.2,44.1,29.95,East,101,3.0,7.0,66,0.00,,,0.00,meteohub,2013-04-07 11:53:00,
2013-04-07 06:58:00,55.2,44.1,29.96,ESE,108,2.0,7.0,66,0.00,,,0.00,meteohub,2013-04-07 11:58:00,
2013-04-07 07:03:00,55.4,44.6,29.96,ESE,113,0.0,7.0,67,0.00,,,0.00,meteohub,2013-04-07 12:03:00,
2013-04-07 07:08:00,55.4,44.6,29.96,ENE,65,3.0,7.0,67,0.00,,,0.00,meteohub,2013-04-07 12:08:00,
2013-04-07 07:13:00,55.6,44.8,29.95,ENE,75,6.0,6.0,67,0.00,,,0.00,meteohub,2013-04-07 12:13:00,
2013-04-07 07:18:00,55.4,45.0,29.95,East,90,2.0,7.0,68,0.00,,,0.00,meteohub,2013-04-07 12:18:00,
2013-04-07 07:23:00,55.2,45.1,29.95,ENE,74,6.0,7.0,69,0.00,,,0.00,meteohub,2013-04-07 12:23:00,
2013-04-07 07:28:00,55.2,45.7,29.95,East,97,3.0,7.0,70,0.00,,,0.00,meteohub,2013-04-07 12:28:00,
2013-04-07 07:33:00,55.2,45.7,29.96,ESE,108,2.0,7.0,70,0.00,,,0.00,meteohub,2013-04-07 12:33:00,
2013-04-07 07:39:00,55.2,46.0,29.96,ESE,115,0.0,7.0,71,0.00,,,0.00,meteohub,2013-04-07 12:39:00,
2013-04-07 07:44:00,55.2,46.0,29.96,West,271,2.0,6.0,71,0.00,,,0.00,meteohub,2013-04-07 12:44:00,
2013-04-07 07:49:00,55.2,46.0,29.96,West,260,0.0,4.0,71,0.00,,,0.00,meteohub,2013-04-07 12:49:00,
2013-04-07 07:54:00,55.2,46.0,29.96,SE,127,1.0,3.0,71,0.00,,,0.00,meteohub,2013-04-07 12:54:00,
2013-04-07 07:59:00,55.2,46.4,29.96,East,95,0.0,3.0,72,0.00,,,0.00,meteohub,2013-04-07 12:59:00,
2013-04-07 08:04:00,55.2,46.0,29.96,West,267,2.0,2.0,71,0.00,,,0.00,meteohub,2013-04-07 13:04:00,
2013-04-07 08:09:00,54.9,46.0,29.97,West,263,2.0,3.0,72,0.00,,,0.00,meteohub,2013-04-07 13:09:00,
2013-04-07 08:14:00,54.9,46.4,29.97,WNW,300,1.0,5.0,73,0.00,,,0.00,meteohub,2013-04-07 13:14:00,
2013-04-07 08:19:00,54.9,46.4,29.97,East,92,2.0,5.0,73,0.00,,,0.00,meteohub,2013-04-07 13:19:00,
2013-04-07 08:24:00,54.9,46.8,29.98,SW,224,2.0,5.0,74,0.00,,,0.00,meteohub,2013-04-07 13:24:00,
2013-04-07 08:29:00,54.9,46.8,29.98,SW,217,0.0,3.0,74,0.00,,,0.00,meteohub,2013-04-07 13:29:00,
2013-04-07 08:34:00,55.0,46.9,29.98,SW,217,1.0,4.0,74,0.00,,,0.00,meteohub,2013-04-07 13:34:00,
2013-04-07 08:39:00,55.0,46.9,29.98,SW,217,0.0,4.0,74,0.00,,,0.00,meteohub,2013-04-07 13:39:00,
2013-04-07 08:44:00,55.0,46.9,29.98,ENE,73,3.0,3.0,74,0.00,,,0.00,meteohub,2013-04-07 13:44:00,
2013-04-07 08:49:00,55.2,47.1,29.98,East,84,0.0,4.0,74,0.00,,,0.00,meteohub,2013-04-07 13:49:00,
2013-04-07 08:55:00,55.6,47.5,29.98,ESE,112,3.0,4.0,74,0.00,,,0.00,meteohub,2013-04-07 13:55:00,
2013-04-07 09:00:00,55.6,47.8,29.98,East,86,5.0,5.0,75,0.00,,,0.00,meteohub,2013-04-07 14:00:00,
2013-04-07 09:05:00,55.8,48.4,29.97,SE,141,5.0,6.0,76,0.00,,,0.00,meteohub,2013-04-07 14:05:00,
2013-04-07 09:10:00,55.9,48.6,29.97,SSE,150,4.0,9.0,76,0.00,,,0.00,meteohub,2013-04-07 14:10:00,
2013-04-07 09:15:00,55.9,48.9,29.97,SSE,153,3.0,9.0,77,0.00,,,0.00,meteohub,2013-04-07 14:15:00,
2013-04-07 09:20:00,56.1,48.9,29.97,SE,133,3.0,10.0,77,0.00,,,0.00,meteohub,2013-04-07 14:20:00,
2013-04-07 09:25:00,56.3,49.1,29.98,SSW,205,2.0,10.0,77,0.00,,,0.00,meteohub,2013-04-07 14:25:00,
2013-04-07 09:30:00,56.5,49.3,29.98,West,263,1.0,10.0,77,0.00,,,0.00,meteohub,2013-04-07 14:30:00,
2013-04-07 09:35:00,56.5,49.3,29.98,East,82,5.0,9.0,77,0.00,,,0.00,meteohub,2013-04-07 14:35:00,
2013-04-07 09:40:00,56.5,49.3,29.98,East,101,7.0,7.0,77,0.00,,,0.00,meteohub,2013-04-07 14:40:00,
2013-04-07 09:45:00,56.7,49.5,29.97,East,91,9.0,9.0,77,0.00,,,0.00,meteohub,2013-04-07 14:45:00,
2013-04-07 09:50:00,57.0,49.8,29.96,East,94,13.0,13.0,77,0.00,,,0.00,meteohub,2013-04-07 14:50:00,
2013-04-07 09:55:00,57.4,50.2,29.96,ENE,58,8.0,14.0,77,0.00,,,0.00,meteohub,2013-04-07 14:55:00,
2013-04-07 10:00:00,57.7,50.5,29.96,East,94,6.0,14.0,77,0.00,,,0.00,meteohub,2013-04-07 15:00:00,
2013-04-07 10:05:00,58.3,51.1,29.95,ESE,113,8.0,14.0,77,0.00,,,0.00,meteohub,2013-04-07 15:05:00,
2013-04-07 10:10:00,58.5,51.3,29.94,East,91,13.0,13.0,77,0.00,,,0.00,meteohub,2013-04-07 15:10:00,
2013-04-07 10:15:00,58.5,51.3,29.94,East,89,5.0,16.0,77,0.00,,,0.00,meteohub,2013-04-07 15:15:00,
2013-04-07 10:20:00,58.6,51.4,29.94,East,95,5.0,16.0,77,0.00,,,0.00,meteohub,2013-04-07 15:20:00,
2013-04-07 10:25:00,59.0,51.8,29.95,South,191,3.0,16.0,77,0.00,,,0.00,meteohub,2013-04-07 15:25:00,
2013-04-07 10:30:00,59.5,52.3,29.96,SSW,204,4.0,11.0,77,0.00,,,0.00,meteohub,2013-04-07 15:30:00,
2013-04-07 10:36:00,59.9,52.7,29.95,ESE,103,3.0,7.0,77,0.00,,,0.00,meteohub,2013-04-07 15:36:00,
2013-04-07 10:41:00,60.1,52.9,29.95,SSE,165,3.0,7.0,77,0.00,,,0.00,meteohub,2013-04-07 15:41:00,
2013-04-07 10:46:00,60.6,53.1,29.95,SE,146,1.0,8.0,76,0.00,,,0.00,meteohub,2013-04-07 15:46:00,
2013-04-07 10:51:00,61.0,53.8,29.94,East,84,4.0,8.0,77,0.00,,,0.00,meteohub,2013-04-07 15:51:00,
2013-04-07 10:56:00,61.2,54.0,29.95,South,177,3.0,9.0,77,0.00,,,0.00,meteohub,2013-04-07 15:56:00,
2013-04-07 11:01:00,61.7,53.8,29.95,East,101,3.0,9.0,75,0.00,,,0.00,meteohub,2013-04-07 16:01:00,
2013-04-07 11:07:00,61.9,53.4,29.94,East,94,4.0,8.0,74,0.00,,,0.00,meteohub,2013-04-07 16:07:00,
2013-04-07 11:12:00,62.1,54.0,29.94,ESE,103,3.0,5.0,75,0.00,,,0.00,meteohub,2013-04-07 16:12:00,
2013-04-07 11:17:00,62.4,54.3,29.94,SE,134,3.0,5.0,75,0.00,,,0.00,meteohub,2013-04-07 16:17:00,
2013-04-07 11:22:00,63.0,54.1,29.94,SSE,149,2.0,8.0,73,0.00,,,0.00,meteohub,2013-04-07 16:22:00,
2013-04-07 11:27:00,63.7,54.5,29.94,ESE,115,8.0,9.0,72,0.00,,,0.00,meteohub,2013-04-07 16:27:00,
2013-04-07 11:32:00,63.9,54.3,29.94,ESE,106,7.0,9.0,71,0.00,,,0.00,meteohub,2013-04-07 16:32:00,
2013-04-07 11:37:00,64.4,54.3,29.94,ESE,102,9.0,10.0,70,0.00,,,0.00,meteohub,2013-04-07 16:37:00,
2013-04-07 11:42:00,64.9,54.5,29.94,ESE,121,9.0,11.0,69,0.00,,,0.00,meteohub,2013-04-07 16:42:00,
2013-04-07 11:47:00,65.1,54.7,29.94,SE,131,7.0,11.0,69,0.00,,,0.00,meteohub,2013-04-07 16:47:00,
2013-04-07 11:52:00,65.7,54.9,29.94,East,94,13.0,13.0,68,0.00,,,0.00,meteohub,2013-04-07 16:52:00,
2013-04-07 11:57:00,66.2,54.5,29.94,ESE,108,11.0,15.0,66,0.00,,,0.00,meteohub,2013-04-07 16:57:00,
2013-04-07 12:02:00,66.4,54.7,29.93,SSE,155,5.0,15.0,66,0.00,,,0.00,meteohub,2013-04-07 17:02:00,
2013-04-07 12:07:00,67.3,55.0,29.93,East,93,7.0,15.0,65,0.00,,,0.00,meteohub,2013-04-07 17:07:00,
2013-04-07 12:12:00,67.6,54.7,29.93,SE,127,7.0,14.0,63,0.00,,,0.00,meteohub,2013-04-07 17:12:00,
2013-04-07 12:17:00,67.8,54.3,29.93,ESE,106,8.0,11.0,62,0.00,,,0.00,meteohub,2013-04-07 17:17:00,
2013-04-07 12:22:00,68.0,54.5,29.93,SE,142,8.0,17.0,62,0.00,,,0.00,meteohub,2013-04-07 17:22:00,
2013-04-07 12:27:00,67.8,54.3,29.93,SE,127,10.0,18.0,62,0.00,,,0.00,meteohub,2013-04-07 17:27:00,
2013-04-07 12:32:00,68.2,55.0,29.93,SSW,201,7.0,18.0,63,0.00,,,0.00,meteohub,2013-04-07 17:32:00,
2013-04-07 12:37:00,68.4,54.3,29.92,SE,134,10.0,18.0,61,0.00,,,0.00,meteohub,2013-04-07 17:37:00,
2013-04-07 12:42:00,69.1,54.7,29.91,SSE,158,12.0,19.0,60,0.00,,,0.00,meteohub,2013-04-07 17:42:00,
2013-04-07 12:47:00,69.3,54.3,29.91,SE,132,16.0,19.0,59,0.00,,,0.00,meteohub,2013-04-07 17:47:00,
2013-04-07 12:52:00,69.1,54.7,29.90,ESE,103,17.0,19.0,60,0.00,,,0.00,meteohub,2013-04-07 17:52:00,
2013-04-07 12:57:00,69.6,55.6,29.90,SSE,149,7.0,21.0,61,0.00,,,0.00,meteohub,2013-04-07 17:57:00,
2013-04-07 13:02:00,69.4,54.5,29.90,SE,124,17.0,21.0,59,0.00,,,0.00,meteohub,2013-04-07 18:02:00,
2013-04-07 13:07:00,69.4,55.4,29.89,SE,124,5.0,21.0,61,0.00,,,0.00,meteohub,2013-04-07 18:07:00,
2013-04-07 13:12:00,69.1,55.9,29.90,South,172,19.0,21.0,63,0.00,,,0.00,meteohub,2013-04-07 18:12:00,
2013-04-07 13:17:00,68.4,56.1,29.91,ESE,121,14.0,21.0,65,0.00,,,0.00,meteohub,2013-04-07 18:17:00,
2013-04-07 13:22:00,67.6,57.6,29.91,ESE,121,11.0,21.0,70,0.00,,,0.00,meteohub,2013-04-07 18:22:00,
2013-04-07 13:27:00,66.4,57.9,29.87,East,101,15.0,21.0,74,0.01,,,0.01,meteohub,2013-04-07 18:27:00,
2013-04-07 13:32:00,65.8,58.5,29.87,ESE,110,15.0,18.0,77,0.02,,,0.02,meteohub,2013-04-07 18:32:00,
2013-04-07 13:37:00,65.3,58.3,29.87,ESE,115,9.0,18.0,78,0.02,,,0.02,meteohub,2013-04-07 18:37:00,
2013-04-07 13:42:00,64.9,58.6,29.87,ESE,120,8.0,18.0,80,0.02,,,0.02,meteohub,2013-04-07 18:42:00,
2013-04-07 13:47:00,65.3,59.4,29.86,ESE,119,11.0,17.0,81,0.02,,,0.02,meteohub,2013-04-07 18:47:00,
2013-04-07 13:53:00,65.5,58.5,29.86,ESE,105,12.0,16.0,78,0.02,,,0.02,meteohub,2013-04-07 18:53:00,
2013-04-07 13:58:00,65.8,58.1,29.85,East,86,21.0,24.0,76,0.02,,,0.02,meteohub,2013-04-07 18:58:00,
2013-04-07 14:03:00,66.0,58.6,29.85,East,99,20.0,24.0,77,0.02,,,0.02,meteohub,2013-04-07 19:03:00,
2013-04-07 14:08:00,66.0,58.3,29.85,ESE,112,16.0,24.0,76,0.02,,,0.02,meteohub,2013-04-07 19:08:00,
2013-04-07 14:13:00,66.2,58.5,29.85,ENE,72,10.0,24.0,76,0.02,,,0.02,meteohub,2013-04-07 19:13:00,
2013-04-07 14:18:00,66.6,58.5,29.84,ESE,115,14.0,24.0,75,0.02,,,0.02,meteohub,2013-04-07 19:18:00,
2013-04-07 14:23:00,67.1,58.8,29.84,ESE,121,12.0,24.0,75,0.02,,,0.02,meteohub,2013-04-07 19:23:00,
2013-04-07 14:28:00,67.5,58.5,29.84,ESE,107,11.0,23.0,73,0.01,,,0.02,meteohub,2013-04-07 19:28:00,
2013-04-07 14:33:00,66.7,57.7,29.83,East,87,15.0,21.0,73,0.00,,,0.02,meteohub,2013-04-07 19:33:00,
2013-04-07 14:38:00,66.4,58.3,29.83,ESE,107,11.0,24.0,75,0.00,,,0.02,meteohub,2013-04-07 19:38:00,
2013-04-07 14:43:00,66.2,57.7,29.83,ESE,103,15.0,24.0,74,0.00,,,0.02,meteohub,2013-04-07 19:43:00,
2013-04-07 14:48:00,65.8,58.1,29.83,ESE,103,13.0,24.0,76,0.00,,,0.02,meteohub,2013-04-07 19:48:00,
2013-04-07 14:53:00,65.8,58.5,29.82,ESE,105,12.0,22.0,77,0.00,,,0.02,meteohub,2013-04-07 19:53:00,
2013-04-07 14:58:00,65.7,58.3,29.82,ESE,103,16.0,22.0,77,0.00,,,0.02,meteohub,2013-04-07 19:58:00,
2013-04-07 15:03:00,65.7,58.6,29.82,ESE,103,10.0,22.0,78,0.00,,,0.02,meteohub,2013-04-07 20:03:00,
2013-04-07 15:09:00,65.8,58.5,29.81,East,96,15.0,21.0,77,0.00,,,0.02,meteohub,2013-04-07 20:09:00,
2013-04-07 15:14:00,66.0,58.6,29.82,ESE,102,13.0,21.0,77,0.00,,,0.02,meteohub,2013-04-07 20:14:00,
2013-04-07 15:19:00,65.7,58.6,29.82,SE,124,8.0,18.0,78,0.00,,,0.02,meteohub,2013-04-07 20:19:00,
2013-04-07 15:24:00,65.7,58.6,29.82,ENE,75,11.0,18.0,78,0.00,,,0.02,meteohub,2013-04-07 20:24:00,
2013-04-07 15:30:00,65.5,58.8,29.81,East,95,11.0,18.0,79,0.00,,,0.02,meteohub,2013-04-07 20:30:00,
2013-04-07 15:35:00,65.5,58.8,29.81,ENE,75,8.0,15.0,79,0.00,,,0.02,meteohub,2013-04-07 20:35:00,
2013-04-07 15:40:00,65.7,59.0,29.81,ENE,78,9.0,15.0,79,0.00,,,0.02,meteohub,2013-04-07 20:40:00,
2013-04-07 15:45:00,65.8,59.2,29.80,ESE,116,10.0,15.0,79,0.00,,,0.02,meteohub,2013-04-07 20:45:00,
2013-04-07 15:50:00,66.6,58.5,29.80,ESE,112,12.0,16.0,75,0.00,,,0.02,meteohub,2013-04-07 20:50:00,
2013-04-07 15:55:00,67.3,58.6,29.80,SE,144,4.0,16.0,74,0.00,,,0.02,meteohub,2013-04-07 20:55:00,
2013-04-07 16:00:00,67.6,58.6,29.80,ESE,114,11.0,16.0,73,0.00,,,0.02,meteohub,2013-04-07 21:00:00,
2013-04-07 16:05:00,67.8,58.8,29.81,SE,132,7.0,15.0,73,0.00,,,0.02,meteohub,2013-04-07 21:05:00,
2013-04-07 16:10:00,68.0,58.6,29.80,SE,142,5.0,15.0,72,0.00,,,0.02,meteohub,2013-04-07 21:10:00,
2013-04-07 16:16:00,67.8,58.8,29.80,SSE,167,17.0,17.0,73,0.00,,,0.02,meteohub,2013-04-07 21:16:00,
2013-04-07 16:21:00,66.9,59.2,29.80,SW,225,15.0,22.0,76,0.00,,,0.02,meteohub,2013-04-07 21:21:00,
2013-04-07 16:27:00,66.2,58.8,29.80,SW,233,14.0,22.0,77,0.00,,,0.02,meteohub,2013-04-07 21:27:00,
2013-04-07 16:32:00,65.7,59.0,29.81,SSE,167,7.0,22.0,79,0.00,,,0.02,meteohub,2013-04-07 21:32:00,
2013-04-07 16:37:00,64.9,58.3,29.81,WSW,243,13.0,22.0,79,0.00,,,0.02,meteohub,2013-04-07 21:37:00,
2013-04-07 16:42:00,64.6,57.9,29.81,SSW,208,10.0,23.0,79,0.00,,,0.02,meteohub,2013-04-07 21:42:00,
2013-04-07 16:47:00,64.2,57.6,29.81,SW,221,20.0,23.0,79,0.00,,,0.02,meteohub,2013-04-07 21:47:00,
2013-04-07 16:52:00,63.9,57.6,29.80,SSW,207,19.0,23.0,80,0.00,,,0.02,meteohub,2013-04-07 21:52:00,
2013-04-07 16:57:00,63.5,57.6,29.81,South,183,9.0,23.0,81,0.00,,,0.02,meteohub,2013-04-07 21:57:00,
2013-04-07 17:02:00,63.1,57.6,29.81,South,190,14.0,22.0,82,0.00,,,0.02,meteohub,2013-04-07 22:02:00,
2013-04-07 17:07:00,62.6,57.7,29.81,South,176,16.0,22.0,84,0.00,,,0.02,meteohub,2013-04-07 22:07:00,
2013-04-07 17:12:00,62.2,57.9,29.81,SSW,198,7.0,22.0,86,0.00,,,0.02,meteohub,2013-04-07 22:12:00,
2013-04-07 17:17:00,61.5,57.9,29.81,SE,140,9.0,19.0,88,0.00,,,0.02,meteohub,2013-04-07 22:17:00,
2013-04-07 17:22:00,61.3,58.1,29.81,South,184,7.0,19.0,89,0.00,,,0.02,meteohub,2013-04-07 22:22:00,
2013-04-07 17:27:00,61.0,58.1,29.81,SW,214,10.0,19.0,90,0.00,,,0.02,meteohub,2013-04-07 22:27:00,
2013-04-07 17:32:00,60.8,57.9,29.81,SE,143,13.0,19.0,90,0.00,,,0.02,meteohub,2013-04-07 22:32:00,
2013-04-07 17:37:00,60.6,57.9,29.81,SW,226,5.0,19.0,91,0.00,,,0.02,meteohub,2013-04-07 22:37:00,
2013-04-07 17:42:00,60.4,57.7,29.81,South,188,11.0,16.0,91,0.00,,,0.02,meteohub,2013-04-07 22:42:00,
2013-04-07 17:47:00,60.4,58.1,29.81,SSE,150,5.0,16.0,92,0.00,,,0.02,meteohub,2013-04-07 22:47:00,
2013-04-07 17:52:00,60.4,58.1,29.81,SE,143,13.0,14.0,92,0.00,,,0.02,meteohub,2013-04-07 22:52:00,
2013-04-07 17:57:00,60.4,58.1,29.80,SSE,158,5.0,14.0,92,0.00,,,0.02,meteohub,2013-04-07 22:57:00,
2013-04-07 18:02:00,60.4,58.5,29.80,SE,143,6.0,16.0,93,0.00,,,0.02,meteohub,2013-04-07 23:02:00,
2013-04-07 18:07:00,60.4,58.1,29.80,SE,133,8.0,16.0,92,0.00,,,0.02,meteohub,2013-04-07 23:07:00,
2013-04-07 18:13:00,60.4,58.1,29.79,South,170,6.0,16.0,92,0.00,,,0.02,meteohub,2013-04-07 23:13:00,
2013-04-07 18:18:00,60.4,58.1,29.79,SE,126,9.0,15.0,92,0.00,,,0.02,meteohub,2013-04-07 23:18:00,
2013-04-07 18:23:00,60.6,58.3,29.80,ESE,116,6.0,15.0,92,0.00,,,0.02,meteohub,2013-04-07 23:23:00,
2013-04-07 18:28:00,60.6,58.3,29.79,SE,126,8.0,15.0,92,0.00,,,0.02,meteohub,2013-04-07 23:28:00,
2013-04-07 18:33:00,60.6,57.9,29.79,SE,140,8.0,16.0,91,0.00,,,0.02,meteohub,2013-04-07 23:33:00,
2013-04-07 18:38:00,60.6,57.9,29.79,ESE,119,8.0,17.0,91,0.00,,,0.02,meteohub,2013-04-07 23:38:00,
2013-04-07 18:43:00,60.8,58.1,29.79,SE,124,11.0,18.0,91,0.00,,,0.02,meteohub,2013-04-07 23:43:00,
2013-04-07 18:48:00,60.8,58.1,29.78,SSE,150,11.0,18.0,91,0.00,,,0.02,meteohub,2013-04-07 23:48:00,
2013-04-07 18:53:00,61.0,58.3,29.78,SE,127,10.0,18.0,91,0.00,,,0.02,meteohub,2013-04-07 23:53:00,
2013-04-07 18:58:00,61.0,58.3,29.78,SSW,205,10.0,16.0,91,0.00,,,0.02,meteohub,2013-04-07 23:58:00,
2013-04-07 19:03:00,61.0,58.1,29.78,SE,141,12.0,19.0,90,0.00,,,0.02,meteohub,2013-04-08 00:03:00,
2013-04-07 19:08:00,61.2,58.3,29.77,ESE,122,10.0,20.0,90,0.00,,,0.02,meteohub,2013-04-08 00:08:00,
2013-04-07 19:13:00,61.2,58.3,29.78,SE,142,5.0,20.0,90,0.00,,,0.02,meteohub,2013-04-08 00:13:00,
2013-04-07 19:18:00,61.2,58.3,29.78,SE,129,11.0,22.0,90,0.01,,,0.03,meteohub,2013-04-08 00:18:00,
2013-04-07 19:23:00,61.2,58.3,29.78,ESE,121,13.0,22.0,90,0.01,,,0.03,meteohub,2013-04-08 00:23:00,
2013-04-07 19:28:00,61.2,57.9,29.78,SE,124,17.0,17.0,89,0.01,,,0.03,meteohub,2013-04-08 00:28:00,
2013-04-07 19:33:00,61.3,58.1,29.78,SE,136,9.0,20.0,89,0.01,,,0.03,meteohub,2013-04-08 00:33:00,
2013-04-07 19:38:00,61.3,58.1,29.78,South,176,13.0,20.0,89,0.01,,,0.03,meteohub,2013-04-08 00:38:00,
2013-04-07 19:43:00,61.3,58.1,29.78,SSE,158,10.0,20.0,89,0.01,,,0.03,meteohub,2013-04-08 00:43:00,
2013-04-07 19:48:00,61.3,58.1,29.78,SSE,147,12.0,16.0,89,0.01,,,0.03,meteohub,2013-04-08 00:48:00,
2013-04-07 19:53:00,61.3,58.1,29.78,SSE,147,8.0,16.0,89,0.01,,,0.03,meteohub,2013-04-08 00:53:00,
2013-04-07 19:58:00,61.3,58.1,29.78,SSE,147,7.0,17.0,89,0.01,,,0.03,meteohub,2013-04-08 00:58:00,
2013-04-07 20:04:00,61.5,58.3,29.78,SSE,167,6.0,17.0,89,0.01,,,0.03,meteohub,2013-04-08 01:04:00,
2013-04-07 20:09:00,61.3,58.1,29.78,South,174,14.0,17.0,89,0.01,,,0.03,meteohub,2013-04-08 01:09:00,
2013-04-07 20:14:00,61.3,58.1,29.78,SSE,147,10.0,17.0,89,0.00,,,0.03,meteohub,2013-04-08 01:14:00,
2013-04-07 20:19:00,61.3,58.5,29.78,South,177,6.0,17.0,90,0.00,,,0.03,meteohub,2013-04-08 01:19:00,
2013-04-07 20:24:00,61.3,58.5,29.78,SE,146,6.0,17.0,90,0.00,,,0.03,meteohub,2013-04-08 01:24:00,
2013-04-07 20:29:00,61.3,58.5,29.79,South,184,6.0,17.0,90,0.00,,,0.03,meteohub,2013-04-08 01:29:00,
2013-04-07 20:34:00,61.2,58.3,29.79,SE,146,9.0,16.0,90,0.00,,,0.03,meteohub,2013-04-08 01:34:00,
2013-04-07 20:39:00,61.2,58.3,29.79,South,182,8.0,16.0,90,0.00,,,0.03,meteohub,2013-04-08 01:39:00,
2013-04-07 20:44:00,61.2,58.3,29.79,SE,140,5.0,16.0,90,0.00,,,0.03,meteohub,2013-04-08 01:44:00,
2013-04-07 20:49:00,61.2,58.3,29.79,SSE,155,7.0,16.0,90,0.00,,,0.03,meteohub,2013-04-08 01:49:00,
2013-04-07 20:54:00,61.0,58.3,29.79,South,177,9.0,16.0,91,0.00,,,0.03,meteohub,2013-04-08 01:54:00,
2013-04-07 20:59:00,61.0,58.3,29.79,SSE,165,7.0,15.0,91,0.00,,,0.03,meteohub,2013-04-08 01:59:00,
2013-04-07 21:05:00,60.8,58.1,29.79,SSE,150,4.0,15.0,91,0.00,,,0.03,meteohub,2013-04-08 02:05:00,
2013-04-07 21:10:00,60.6,57.9,29.80,South,187,6.0,15.0,91,0.00,,,0.03,meteohub,2013-04-08 02:10:00,
2013-04-07 21:15:00,60.4,58.1,29.79,SE,130,12.0,15.0,92,0.00,,,0.03,meteohub,2013-04-08 02:15:00,
2013-04-07 21:20:00,60.4,58.1,29.79,SSE,156,11.0,13.0,92,0.00,,,0.03,meteohub,2013-04-08 02:20:00,
2013-04-07 21:25:00,60.4,58.1,29.79,SE,139,11.0,17.0,92,0.00,,,0.03,meteohub,2013-04-08 02:25:00,
2013-04-07 21:30:00,60.4,58.1,29.79,SSE,168,9.0,17.0,92,0.00,,,0.03,meteohub,2013-04-08 02:30:00,
2013-04-07 21:35:00,60.3,57.9,29.79,South,187,7.0,16.0,92,0.00,,,0.03,meteohub,2013-04-08 02:35:00,
2013-04-07 21:40:00,60.3,57.9,29.79,SSE,147,13.0,17.0,92,0.00,,,0.03,meteohub,2013-04-08 02:40:00,
2013-04-07 21:45:00,60.1,57.7,29.79,SE,129,8.0,19.0,92,0.00,,,0.03,meteohub,2013-04-08 02:45:00,
2013-04-07 21:50:00,60.1,57.7,29.80,SE,138,10.0,20.0,92,0.00,,,0.03,meteohub,2013-04-08 02:50:00,
2013-04-07 21:55:00,59.9,57.6,29.80,SE,133,3.0,20.0,92,0.00,,,0.03,meteohub,2013-04-08 02:55:00,
2013-04-07 22:01:00,59.9,57.6,29.81,SSE,163,5.0,20.0,92,0.00,,,0.03,meteohub,2013-04-08 03:01:00,
2013-04-07 22:06:00,59.9,57.6,29.81,SE,136,10.0,15.0,92,0.00,,,0.03,meteohub,2013-04-08 03:06:00,
2013-04-07 22:11:00,59.9,57.6,29.81,SE,136,11.0,19.0,92,0.00,,,0.03,meteohub,2013-04-08 03:11:00,
2013-04-07 22:16:00,59.7,57.4,29.81,SSE,150,7.0,19.0,92,0.00,,,0.03,meteohub,2013-04-08 03:16:00,
2013-04-07 22:21:00,59.5,57.2,29.81,SSW,211,8.0,19.0,92,0.00,,,0.03,meteohub,2013-04-08 03:21:00,
2013-04-07 22:26:00,59.5,57.2,29.81,SE,143,8.0,16.0,92,0.00,,,0.03,meteohub,2013-04-08 03:26:00,
2013-04-07 22:32:00,59.4,57.0,29.81,South,191,6.0,14.0,92,0.00,,,0.03,meteohub,2013-04-08 03:32:00,
2013-04-07 22:37:00,59.4,57.0,29.81,SE,146,5.0,14.0,92,0.00,,,0.03,meteohub,2013-04-08 03:37:00,
2013-04-07 22:42:00,59.5,57.2,29.81,South,173,12.0,16.0,92,0.00,,,0.03,meteohub,2013-04-08 03:42:00,
2013-04-07 22:47:00,59.4,57.0,29.81,South,183,6.0,16.0,92,0.00,,,0.03,meteohub,2013-04-08 03:47:00,
2013-04-07 22:52:00,59.4,57.0,29.80,South,173,12.0,16.0,92,0.00,,,0.03,meteohub,2013-04-08 03:52:00,
2013-04-07 22:57:00,59.4,57.0,29.81,SSW,205,5.0,16.0,92,0.00,,,0.03,meteohub,2013-04-08 03:57:00,
2013-04-07 23:00:00,59.4,57.0,29.81,SSW,207,5.0,16.0,92,0.00,,,0.03,meteohub,2013-04-08 04:00:00,
2013-04-07 23:05:00,59.4,57.0,29.80,South,181,11.0,17.0,92,0.00,,,0.03,meteohub,2013-04-08 04:05:00,
2013-04-07 23:10:00,59.4,57.0,29.81,SSE,165,13.0,17.0,92,0.00,,,0.03,meteohub,2013-04-08 04:10:00,
2013-04-07 23:15:00,59.4,57.0,29.80,SE,146,15.0,17.0,92,0.00,,,0.03,meteohub,2013-04-08 04:15:00,
2013-04-07 23:20:00,59.4,57.0,29.80,SSE,152,5.0,17.0,92,0.00,,,0.03,meteohub,2013-04-08 04:20:00,
2013-04-07 23:25:00,59.4,57.0,29.80,South,176,8.0,17.0,92,0.00,,,0.03,meteohub,2013-04-08 04:25:00,
2013-04-07 23:30:00,59.4,57.0,29.81,SSE,159,10.0,17.0,92,0.00,,,0.03,meteohub,2013-04-08 04:30:00,
2013-04-07 23:35:00,59.4,57.0,29.81,SSW,203,2.0,16.0,92,0.00,,,0.03,meteohub,2013-04-08 04:35:00,
2013-04-07 23:40:00,59.4,57.0,29.81,SE,131,6.0,16.0,92,0.00,,,0.03,meteohub,2013-04-08 04:40:00,
2013-04-07 23:45:00,59.4,57.0,29.81,South,170,8.0,16.0,92,0.00,,,0.03,meteohub,2013-04-08 04:45:00,
2013-04-07 23:50:00,59.4,57.0,29.81,South,191,4.0,16.0,92,0.00,,,0.03,meteohub,2013-04-08 04:50:00,
2013-04-07 23:55:00,59.2,56.8,29.82,SSE,166,7.0,13.0,92,0.00,,,0.03,meteohub,2013-04-08 04:55:00,